www.pogodaiklimat.ru

Погода и климат >> Архив погоды >> Ирак >> Basrah


ПОГОДА в Basrah

  • Прогноз погоды в Basrah
  • Монитор погоды в Basrah
  • Климат города

АРХИВ ПОГОДЫ в Basrah

Время (UTC), дата Ветер
(напр.,м/с)
 
Видим.   Явления Облачность Т
(С)
Тd
(С)
f
(%)
Тe
(С)
Тes
(С)
Комфортность P
(гПа)
Po
(гПа)
Тmin
(С)
Tmax
(С)
R
(мм)
R24
(мм)
S
(см)
18 11.12 СЗ 3 10 км ясно +16.8 +10.0 64 +17 +17 1022.2 1022.0 +23.0
03 12.12 штиль 0 10 км ясно +10.6 +8.1 85 +10 +10 1022.7 1023.0
06 12.12 штиль 0 10 км ясно +15.4 +9.6 68 +15 +20 1023.3 1023.0 +9.8
09 12.12 СЗ 2 10 км ясно +21.6 +10.7 50 +23 +31 комфорт 1021.9 1022.0
12 12.12 С 2 10 км ясно +22.8 +9.1 42 +24 +27 комфорт 1020.5 1021.0
15 12.12 штиль 0 10 км ясно +18.0 +9.3 57 +18 +18 1020.9 1021.0
18 12.12 штиль 0 10 км ясно +13.4 +9.0 75 +13 +13 1021.2 1021.0 +23.8
21 12.12 штиль 0 10 км ясно +11.6 +9.2 85 +11 +11 1021.3 1021.0
00 13.12 штиль 0 10 км ясно +10.6 +9.0 90 +10 +10 1021.1 1021.0
03 13.12 штиль 0 10 км ясно +10.0 +8.3 89 +9 +9 1021.7 1022.0
06 13.12 штиль 0 10 км ясно +16.2 +10.1 67 +16 +21 1023.8 1024.0 +9.5
09 13.12 штиль 0 10 км ясно +22.4 +10.9 48 +24 +35 комфорт 1022.7 1023.0
12 13.12 В 2 10 км ясно +24.0 +9.8 41 +25 +27 комфорт 1020.8 1021.0
15 13.12 штиль 0 10 км ясно +18.0 +11.6 66 +18 +18 1021.9 1022.0
18 13.12 штиль 0 10 км ясно +15.2 +11.1 77 +15 +15 1022.8 1023.0 +25.0
21 13.12 штиль 0 10 км 3/0
[Ac trans]
+14.2 +11.0 81 +14 +14 1023.2 1023.0
00 14.12 С 2 10 км 3/0
[Ac trans]
+14.0 +11.0 82 +13 +13 1023.6 1024.0
06 14.12 СЗ 2 6000 м мгла 3/0
[Ac trans]
+16.6 +11.8 73 +17 +19 1025.6 1026.0 +13.5
09 14.12 СЗ 3 10 км ясно +22.6 +13.7 57 +26 +32 жарко 1023.9 1024.0
12 14.12 СЗ 3 10 км 3/0
[Ci sp]
+23.4 +13.5 54 +27 +29 душно 1023.4 1023.0
18 14.12 СЗ 3 10 км ясно +17.6 +11.4 67 +18 +18 1025.2 1025.0 +24.4
21 14.12 СЗ 2 10 км ясно +16.0 +11.6 75 +16 +16 1024.8 1025.0
00 15.12 СЗ 2 10 км ясно +14.5 +9.7 73 +14 +14 1024.1 1024.0
03 15.12 СЗ 2 10 км ясно +12.3 +7.6 73 +11 +11 1024.9 1025.0
06 15.12 СЗ 3 10 км ясно +14.0 +6.3 60 +13 +16 1026.2 1026.0 +11.6
12 15.12 СЗ 4 10 км ясно +21.0 +2.9 30 +22 +23 комфорт 1023.3 1023.0
15 15.12 СЗ 4 10 км ясно +17.0 +4.4 43 +17 +17 1024.5 1025.0
18 15.12 СЗ 3 10 км ясно +14.5 +6.5 59 +14 +14 1025.2 1025.0 +21.8
21 15.12 СЗ 2 10 км ясно +12.0 +6.1 67 +11 +11 1025.4 1025.0
06 16.12 штиль 0 10 км ясно +12.3 +0.7 45 +12 +17 1037.0 1037.0 +9.0
09 16.12 СЗ 2 10 км ясно +17.6 +6.8 49 +18 +26 1026.2 1026.0
15 16.12 штиль 0 10 км ясно +16.0 +8.8 62 +16 +16 1025.5 1026.0
18 16.12 штиль 0 10 км ясно +11.4 +7.7 78 +11 +11 1025.8 1026.0 +21.0
21 16.12 штиль 0 10 км ясно +10.8 +7.0 77 +10 +10 1024.7 1025.0
00 17.12 штиль 0 10 км ясно +11.2 +9.0 86 +11 +11 1024.0 1024.0
06 17.12 ЮВ 2 10 км ясно +14.8 +11.0 78 +15 +18 1023.6 1024.0 +8.6
09 17.12 ЮВ 3 10 км 4/0
[Ac trans Ci fib]
+20.6 +8.9 47 +22 +27 комфорт 1021.7 1022.0
12 17.12 ЮВ 3 10 км 4/0
[Ac cast Ci fib]
+22.6 +10.7 47 +25 +26 комфорт 1019.3 1019.0
15 17.12 ЮВ 4 10 км 4/0
[Ac trans]
+19.6 +13.7 69 +21 +21 комфорт 1019.7 1020.0
18 17.12 ЮВ 4 10 км 5/5 1200 м
[Sc]
+18.2 +13.6 75 +18 +18 1020.0 1020.0 +23.5
21 17.12 ЮВ 4 10 км 5/5 1200 м
[Sc]
+18.4 +14.2 77 +19 +19 1019.5 1020.0
03 18.12 ЮВ 4 6000 м дымка {дождь} 10/10 1050 м
[Cu Sc]
+15.4 +14.7 96 +14 +14 1012.4 1012.0
06 18.12 ЮВ 4 8000 м 9/9 1200 м
[Sc]
+16.0 +14.6 91 +15 +15 1023.3 1023.0 +15.0 12
12 18.12 ЮЗ 2 10 км 5/4 900 м
[Cu Sc Ac trans]
+20.0 +14.9 72 +23 +24 комфорт 1022.2 1022.0
15 18.12 С 3 10 км 5/3 900 м
[Cu Sc Ac trans]
+16.0 +13.1 83 +16 +16 1023.3 1023.0

 

Местоположение метеостанции Basrah (Ирак): широта 30.57 долгота 47.78 высота над уровнем моря 2 м.

В архиве по умолчанию представлена погода в Basrah за последнюю неделю. Архивные данные за месяц целиком и за предыдущие месяцы, начиная с января 2011 года, Вы можете получить, выбрав интересующий диапазон дат из раскрывающегося списка и нажав кнопку "Ввод!".


*Определитесь, кто Вы:
робот инопланетянин человек

Внимание! Время в таблицах - всемирное. Для получения местного времени необходимо прибавить поправку, которая в Basrah равна 3 ч.

Смотрите также архив погоды в соседних городах и на ближайших метеорологических станциях:

Погода в Basrah Airport (Ирак) (6 км)
Погода в Abadan (Иран) (50 км)
Погода в Abdaly (Кувейт) (55 км)
Погода в Sabriyah (Кувейт) (91 км)
Погода в Mitribah (Кувейт) (92 км)
Погода в Fao (Ирак) (95 км)
Погода в Bubiyan (Кувейт) (106 км)
Погода в Jal Aliyah (Кувейт) (108 км)
Погода в Ahwaz (Иран) (120 км)
Погода в Failaka Island (Кувейт) (131 км)

Пояснения к столбцам:

Ветер - указаны скорость ветра в м/с - средняя за 10 мин, порывы в срок и между сроками (в фигурных скобках) и направление, откуда дует ветер: С - северный, СВ - северо-восточный, В - восточный, ЮВ - юго-восточный, Ю - южный, ЮЗ - юго-западный, З - западный, СЗ - северо-западный.
Видимость - горизонтальная дальность видимости в метрах или километрах. При видимости от 1 до 10 км при отсутствии осадков обычно наблюдается дымка, при ухудшении видимости до 1 км и менее - туман. В сухую погоду видимость может ухудшаться дымом, пылью или мглою.
Явления - указаны атмосферные явления, наблюдавшиеся в срок или в последний час перед сроком; фигурными скобками обозначены явления, наблюдавшиеся между сроками (за 1-3 часа до срока); квадратными скобками обозначены град или гололедные отложения с указанием их диаметра в мм.
Облачность - указаны через наклонную черту общая и нижняя облачность в баллах и высота нижней границы облаков в метрах; квадратными скобками обозначены формы облаков: Ci - перистые, Cs - перисто-слоистые, Cc - перисто-кучевые, Ac - высококучевые, As - высокослоистые, Sc - слоисто-кучевые, Ns - слоисто-дождевые, Cu - кучевые, Cb - кучево-дождевые. Подробнее классификацию облаков см. в Атласе облаков (PDF).
T - Температура воздуха - температура, измеренная на высоте 2 м над землей.
Td - Температура точки росы - температура, при понижении до которой содержащийся в воздухе водяной пар достигнет насыщения.
f - Относительная влажность воздуха - влажноcть воздуха, измеренная на высоте 2 м над землей.
Te - Эффективная температура - температура, которую ощущает одетый по сезону человек в тени. Характеристика душности погоды. При расчете учитывается влияние влажности воздуха и скорости ветра на теплоощущения человека.
Tes - Эффективная температура на солнце - температура, которую ощущает человек, с поправкой на солнечный нагрев. Характеристика знойности погоды. Зависит от высоты солнца над горизонтом, облачности и скорости ветра. Ночью, в пасмурную погоду, а также при ветре 12 м/с и более поправка равна нулю.
P - Атмосферное давление - приведенное к уровню моря атмосферное давление.
Po - Атмосферное давление - измеренное на уровне метеостанции атмосферное давление.
Tmin - Минимальная температура - минимум температуры воздуха на высоте 2 м над землей.
Tmax - Максимальная температура - максимум температуры воздуха на высоте 2 м над землей.
R - Количество осадков - Количество выпавших осадков за период времени, мм. При наведении курсора мыши на число - период времени, за который выпало указанное количество осадков.
R24 - Количество осадков - Количество выпавших осадков за 24 часа, мм.
S - Снежный покров - Высота снежного покрова, см. При наведении курсора мыши на число - состояние снежного покрова и степень покрытия местности в баллах.